When you browse on this site, cookies collect data to enhance your experience and personalize the content and advertising you see.
Visit our Privacy Policy to learn more. By continuing to use the site, you agree to this use of cookies and data.
  • In Lithuania
  • List of Countries
  • For 7 days
  • Water Temperature
  • Weather Map
  • Weather Widgets
  • user-avatar
    Login

    Hourly Weather Saurimo

    Today, 27 February, Thursday

    Time Temperature Precipitation Wind Pressure Humidity
    00:00 +21°C° 0 mm 1 mps 669 mmHg 97%
    01:00 +21°C° 0 mm 1 mps 669 mmHg 97%
    02:00 +20°C° 0 mm 1 mps 668 mmHg 98%
    03:00 +20°C° 0 mm 1 mps 668 mmHg 98%
    04:00 +20°C° 0 mm 1 mps 668 mmHg 98%
    05:00 +21°C° 0.1 mm 1 mps 669 mmHg 97%
    06:00 +21°C° 0.1 mm 1 mps 669 mmHg 95%
    07:00 +22°C° 0 mm 1 mps 670 mmHg 95%
    08:00 +24°C° 0.5 mm 2 mps 670 mmHg 88%
    09:00 +26°C° 0.5 mm 2 mps 670 mmHg 81%
    10:00 +28°C° 0.5 mm 3 mps 671 mmHg 74%
    11:00 +28°C° 0.8 mm 3 mps 670 mmHg 72%
    12:00 +29°C° 0.8 mm 3 mps 670 mmHg 70%
    13:00 +30°C° 0 mm 3 mps 670 mmHg 60%
    14:00 +29°C° 1.3 mm 3 mps 669 mmHg 68%
    15:00 +28°C° 1.3 mm 2 mps 668 mmHg 75%
    16:00 +27°C° 1.3 mm 2 mps 668 mmHg 83%
    17:00 +26°C° 0.8 mm 2 mps 668 mmHg 86%
    18:00 +24°C° 0.8 mm 2 mps 669 mmHg 90%
    19:00 +21°C° 0.8 mm 2 mps 669 mmHg 93%
    20:00 +21°C° 1.1 mm 2 mps 670 mmHg 94%
    21:00 +21°C° 1.1 mm 3 mps 670 mmHg 95%
    22:00 +21°C° 1.1 mm 3 mps 670 mmHg 96%
    23:00 +21°C° 0.9 mm 3 mps 670 mmHg 97%

    Tomorrow, 28 February, Friday

    Time Temperature Precipitation Wind Pressure Humidity
    00:00 +20°C° 0.9 mm 3 mps 670 mmHg 97%
    01:00 +20°C° 0.9 mm 3 mps 670 mmHg 98%
    02:00 +20°C° 1.1 mm 3 mps 669 mmHg 98%
    03:00 +20°C° 1.1 mm 3 mps 669 mmHg 98%
    04:00 +20°C° 1.1 mm 3 mps 669 mmHg 97%
    05:00 +20°C° 0.4 mm 2 mps 670 mmHg 97%
    06:00 +20°C° 0.4 mm 2 mps 670 mmHg 97%
    07:00 +20°C° 0.4 mm 2 mps 671 mmHg 97%
    08:00 +21°C° 0 mm 2 mps 671 mmHg 96%
    09:00 +21°C° 0 mm 2 mps 671 mmHg 94%
    10:00 +21°C° 0 mm 2 mps 672 mmHg 92%
    11:00 +21°C° 0.1 mm 2 mps 671 mmHg 91%
    12:00 +21°C° 0.1 mm 3 mps 671 mmHg 91%
    13:00 +21°C° 0.1 mm 3 mps 670 mmHg 91%
    14:00 +21°C° 0 mm 2 mps 670 mmHg 90%
    15:00 +23°C° 0 mm 2 mps 669 mmHg 89%
    16:00 +23°C° 0 mm 1 mps 668 mmHg 88%
    17:00 +22°C° 0 mm 1 mps 668 mmHg 91%
    18:00 +22°C° 0 mm 1 mps 669 mmHg 94%
    19:00 +19°C° 0 mm 0 mps 669 mmHg 96%
    20:00 +19°C° 0 mm 0 mps 669 mmHg 97%
    21:00 +18°C° 0 mm 0 mps 669 mmHg 97%
    22:00 +18°C° 0 mm 0 mps 670 mmHg 97%
    23:00 +18°C° 0 mm 0 mps 669 mmHg 97%

    Day after tomorrow, 29 February, Saturday

    Time Temperature Precipitation Wind Pressure Humidity
    00:00 +18°C° 0 mm 0 mps 669 mmHg 96%
    01:00 +18°C° 0 mm 0 mps 669 mmHg 95%
    02:00 +18°C° 0 mm 0 mps 669 mmHg 95%
    03:00 +18°C° 0 mm 0 mps 669 mmHg 94%
    04:00 +18°C° 0 mm 0 mps 669 mmHg 94%
    05:00 +19°C° 0 mm 0 mps 669 mmHg 93%
    06:00 +19°C° 0 mm 0 mps 670 mmHg 92%
    07:00 +19°C° 0 mm 0 mps 671 mmHg 92%
    08:00 +23°C° 0.7 mm 1 mps 671 mmHg 88%
    09:00 +24°C° 0.7 mm 1 mps 672 mmHg 84%
    10:00 +26°C° 0.7 mm 1 mps 672 mmHg 81%
    11:00 +26°C° 0.8 mm 1 mps 672 mmHg 81%
    12:00 +25°C° 0.8 mm 1 mps 671 mmHg 82%
    13:00 +25°C° 0.8 mm 2 mps 670 mmHg 82%
    14:00 +24°C° 0.2 mm 1 mps 670 mmHg 85%
    15:00 +24°C° 0.2 mm 1 mps 669 mmHg 87%
    16:00 +23°C° 0.2 mm 1 mps 669 mmHg 89%
    17:00 +22°C° 0 mm 1 mps 669 mmHg 89%
    18:00 +22°C° 0 mm 1 mps 669 mmHg 89%
    19:00 +21°C° 0 mm 1 mps 670 mmHg 90%
    20:00 +20°C° 0 mm 2 mps 670 mmHg 89%
    21:00 +20°C° 0 mm 2 mps 670 mmHg 88%
    22:00 +20°C° 0 mm 2 mps 671 mmHg 88%
    23:00 +20°C° 0 mm 2 mps 670 mmHg 82%

    1 March, Sunday

    Time Temperature Precipitation Wind Pressure Humidity
    00:00 +20°C° 0 mm 3 mps 670 mmHg 77%
    01:00 +20°C° 0 mm 3 mps 670 mmHg 72%
    02:00 +20°C° 0 mm 3 mps 670 mmHg 72%
    03:00 +21°C° 0 mm 3 mps 670 mmHg 73%
    04:00 +21°C° 0 mm 3 mps 670 mmHg 73%
    05:00 +21°C° 0 mm 3 mps 670 mmHg 77%
    06:00 +20°C° 0 mm 2 mps 670 mmHg 81%
    07:00 +20°C° 0 mm 2 mps 671 mmHg 85%
    08:00 +23°C° 0 mm 1 mps 671 mmHg 80%
    09:00 +25°C° 0 mm 1 mps 671 mmHg 75%
    10:00 +26°C° 0 mm 1 mps 672 mmHg 69%
    11:00 +27°C° 0.1 mm 1 mps 671 mmHg 66%
    12:00 +29°C° 0.1 mm 1 mps 671 mmHg 63%
    13:00 +30°C° 0.1 mm 1 mps 671 mmHg 60%
    14:00 +28°C° 1 mm 1 mps 670 mmHg 68%
    15:00 +27°C° 1 mm 1 mps 669 mmHg 75%
    16:00 +26°C° 1 mm 2 mps 668 mmHg 82%
    17:00 +24°C° 0.4 mm 1 mps 668 mmHg 84%
    18:00 +23°C° 0.4 mm 1 mps 669 mmHg 87%
    19:00 +21°C° 0.4 mm 1 mps 669 mmHg 90%
    20:00 +21°C° 0.3 mm 1 mps 669 mmHg 91%
    21:00 +21°C° 0.3 mm 1 mps 670 mmHg 92%
    22:00 +21°C° 0.3 mm 1 mps 670 mmHg 94%
    23:00 +20°C° 0 mm 1 mps 670 mmHg 94%

    2 March, Monday

    Time Temperature Precipitation Wind Pressure Humidity
    00:00 +20°C° 0 mm 1 mps 669 mmHg 95%
    01:00 +20°C° 0 mm 1 mps 669 mmHg 95%
    02:00 +20°C° 0 mm 1 mps 669 mmHg 96%
    03:00 +19°C° 0 mm 1 mps 669 mmHg 96%
    04:00 +19°C° 0 mm 1 mps 669 mmHg 96%
    05:00 +20°C° 0 mm 1 mps 669 mmHg 95%
    06:00 +20°C° 0 mm 1 mps 670 mmHg 93%
    07:00 +21°C° 0 mm 1 mps 671 mmHg 91%
    08:00 +23°C° 0 mm 1 mps 671 mmHg 82%
    09:00 +25°C° 0 mm 2 mps 672 mmHg 72%
    10:00 +28°C° 0 mm 2 mps 672 mmHg 63%
    11:00 +29°C° 0 mm 1 mps 672 mmHg 59%
    12:00 +31°C° 0 mm 1 mps 671 mmHg 55%
    13:00 +32°C° 0 mm 1 mps 671 mmHg 51%
    14:00 +32°C° 0 mm 1 mps 670 mmHg 53%
    15:00 +31°C° 0 mm 1 mps 670 mmHg 55%
    16:00 +30°C° 0 mm 1 mps 669 mmHg 58%
    17:00 +28°C° 0 mm 1 mps 669 mmHg 64%
    18:00 +26°C° 0 mm 1 mps 669 mmHg 70%
    19:00 +24°C° 0 mm 1 mps 669 mmHg 75%
    20:00 +23°C° 0.1 mm 1 mps 670 mmHg 78%
    21:00 +23°C° 0.1 mm 1 mps 670 mmHg 80%
    22:00 +22°C° 0.1 mm 1 mps 671 mmHg 82%
    23:00 +22°C° 0 mm 1 mps 670 mmHg 84%

    3 March, Tuesday

    Time Temperature Precipitation Wind Pressure Humidity
    00:00 +21°C° 0 mm 1 mps 670 mmHg 87%
    01:00 +21°C° 0 mm 1 mps 670 mmHg 89%
    02:00 +20°C° 0 mm 1 mps 669 mmHg 90%
    03:00 +18°C° 0 mm 0 mps 669 mmHg 90%
    04:00 +18°C° 0 mm 0 mps 669 mmHg 91%
    05:00 +18°C° 0 mm 0 mps 670 mmHg 89%
    06:00 +19°C° 0 mm 0 mps 671 mmHg 87%
    07:00 +20°C° 0 mm 0 mps 671 mmHg 85%
    08:00 +23°C° 0 mm 0 mps 672 mmHg 77%
    09:00 +25°C° 0 mm 0 mps 672 mmHg 69%
    10:00 +30°C° 0 mm 1 mps 673 mmHg 61%
    11:00 +30°C° 0.2 mm 1 mps 672 mmHg 59%
    12:00 +31°C° 0.2 mm 1 mps 672 mmHg 57%
    13:00 +31°C° 0.2 mm 1 mps 671 mmHg 55%
    14:00 +29°C° 1.6 mm 1 mps 670 mmHg 65%
    15:00 +28°C° 1.6 mm 2 mps 669 mmHg 74%
    16:00 +26°C° 1.6 mm 2 mps 669 mmHg 83%
    17:00 +25°C° 0.9 mm 1 mps 669 mmHg 85%
    18:00 +23°C° 0.9 mm 1 mps 669 mmHg 87%
    19:00 +21°C° 0.9 mm 1 mps 669 mmHg 89%
    20:00 +21°C° 0 mm 1 mps 669 mmHg 89%
    21:00 +21°C° 0 mm 1 mps 670 mmHg 90%
    22:00 +19°C° 0 mm 0 mps 670 mmHg 90%
    23:00 +19°C° 0.3 mm 0 mps 670 mmHg 91%
    Show more